| time (UTC) | temp C | wind direction | speed KPH | gust KPH | rain 1hr cm | rain 24hr cm | rain mn cm | humidity % | barometer mb |
| 20260906105404 | 18 | 280 | 3.2 | 3.2 | 0.00 | 0.00 | 0.00 | 99 | 1015.1 |
| 20260906104900 | 18 | 310 | 1.6 | 3.2 | 0.00 | 0.00 | 0.00 | 99 | 1015.1 |
| 20260906104358 | 18 | 296 | 0.0 | 0.0 | 0.00 | 0.00 | 0.00 | 99 | 1015.3 |
| 20260906103857 | 18 | 315 | 0.0 | 1.6 | 0.00 | 0.00 | 0.00 | 99 | 1015.2 |
| 20260906103355 | 18 | 307 | 3.2 | 3.2 | 0.00 | 0.00 | 0.00 | 99 | 1015.2 |
| 20260906102852 | 18 | 315 | 0.0 | 3.2 | 0.00 | 0.00 | 0.00 | 99 | 1015.1 |
| 20260906102351 | 18 | 316 | 1.6 | 3.2 | 0.00 | 0.00 | 0.00 | 99 | 1015.2 |
| 20260906101846 | 18 | 294 | 1.6 | 1.6 | 0.00 | 0.00 | 0.00 | 99 | 1015.1 |
| 20260906101341 | 18 | 313 | 3.2 | 3.2 | 0.00 | 0.00 | 0.00 | 99 | 1015.1 |
| 20260906100837 | 18 | 312 | 3.2 | 3.2 | 0.00 | 0.00 | 0.00 | 99 | 1015.1 |
| 20260906100335 | 18 | 325 | 0.0 | 3.2 | 0.00 | 0.00 | 0.00 | 99 | 1015.3 |
| 20260906095831 | 18 | 294 | 0.0 | 3.2 | 0.00 | 0.00 | 0.00 | 99 | 1015.3 |
| 20260906095326 | 18 | 162 | 1.6 | 3.2 | 0.00 | 0.00 | 0.00 | 99 | 1015.3 |
| 20260906094826 | 18 | 139 | 3.2 | 3.2 | 0.00 | 0.00 | 0.00 | 99 | 1015.3 |
| 20260906094321 | 18 | 263 | 3.2 | 6.4 | 0.00 | 0.00 | 0.00 | 99 | 1015.3 |
| 20260906093817 | 18 | 289 | 3.2 | 3.2 | 0.00 | 0.00 | 0.00 | 99 | 1015.0 |
| 20260906093313 | 18 | 316 | 3.2 | 3.2 | 0.00 | 0.00 | 0.00 | 99 | 1015.0 |
| 20260906092808 | 18 | 37 | 0.0 | 1.6 | 0.00 | 0.00 | 0.00 | 99 | 1015.0 |
| 20260906092307 | 18 | 299 | 3.2 | 3.2 | 0.00 | 0.00 | 0.00 | 99 | 1015.0 |
| 20260906091803 | 18 | 294 | 0.0 | 3.2 | 0.00 | 0.00 | 0.00 | 99 | 1015.0 |
| 20260906091259 | 18 | 306 | 1.6 | 3.2 | 0.00 | 0.00 | 0.00 | 99 | 1014.8 |
| 20260906090755 | 18 | 310 | 1.6 | 3.2 | 0.00 | 0.00 | 0.00 | 99 | 1014.9 |
| 20260906090254 | 18 | 315 | 0.0 | 0.0 | 0.00 | 0.00 | 0.00 | 99 | 1014.9 |
| 20260906085754 | 18 | 322 | 1.6 | 3.2 | 0.00 | 0.00 | 0.00 | 99 | 1014.6 |
| 20260906085253 | 18 | 310 | 1.6 | 3.2 | 0.00 | 0.00 | 0.00 | 99 | 1014.8 |
| 20260906084748 | 18 | 325 | 1.6 | 1.6 | 0.00 | 0.00 | 0.00 | 99 | 1014.7 |
| 20260906084248 | 18 | 311 | 1.6 | 3.2 | 0.00 | 0.00 | 0.00 | 99 | 1014.9 |
| 20260906083743 | 18 | 325 | 1.6 | 3.2 | 0.00 | 0.00 | 0.00 | 99 | 1014.9 |
| 20260906083238 | 18 | 305 | 1.6 | 3.2 | 0.00 | 0.00 | 0.00 | 99 | 1014.7 |
| 20260906082733 | 18 | 308 | 1.6 | 1.6 | 0.00 | 0.00 | 0.00 | 99 | 1014.8 |
| 20260906082228 | 18 | 303 | 3.2 | 3.2 | 0.00 | 0.00 | 0.00 | 99 | 1014.9 |
| 20260906081724 | 18 | 317 | 1.6 | 3.2 | 0.00 | 0.00 | 0.00 | 99 | 1014.9 |
| 20260906081219 | 18 | 310 | 3.2 | 3.2 | 0.00 | 0.00 | 0.00 | 99 | 1014.7 |
| 20260906080716 | 18 | 304 | 0.0 | 1.6 | 0.00 | 0.00 | 0.00 | 99 | 1014.9 |
| 20260906080212 | 18 | 314 | 1.6 | 3.2 | 0.00 | 0.00 | 0.00 | 99 | 1014.7 |
| 20260906075712 | 18 | 315 | 1.6 | 3.2 | 0.00 | 0.00 | 0.00 | 99 | 1014.7 |
| 20260906075206 | 18 | 302 | 1.6 | 3.2 | 0.00 | 0.00 | 0.00 | 99 | 1014.4 |
| 20260906074701 | 18 | 309 | 0.0 | 3.2 | 0.00 | 0.00 | 0.00 | 99 | 1014.6 |
| 20260906074200 | 18 | 317 | 1.6 | 3.2 | 0.00 | 0.00 | 0.00 | 99 | 1014.7 |
| 20260906073655 | 18 | 307 | 1.6 | 3.2 | 0.00 | 0.00 | 0.00 | 99 | 1014.6 |
| 20260906073151 | 18 | 305 | 1.6 | 3.2 | 0.00 | 0.00 | 0.00 | 99 | 1014.7 |
| 20260906072646 | 18 | 306 | 3.2 | 3.2 | 0.00 | 0.00 | 0.00 | 99 | 1014.6 |
| 20260906072141 | 19 | 301 | 1.6 | 3.2 | 0.00 | 0.00 | 0.00 | 99 | 1014.5 |
| 20260906071638 | 19 | 322 | 0.0 | 0.0 | 0.00 | 0.00 | 0.00 | 99 | 1014.8 |
| 20260906071138 | 19 | 320 | 1.6 | 3.2 | 0.00 | 0.00 | 0.00 | 99 | 1014.9 |
| 20260906070635 | 19 | 282 | 1.6 | 3.2 | 0.00 | 0.00 | 0.00 | 99 | 1014.8 |
| 20260906070130 | 19 | 311 | 1.6 | 3.2 | 0.00 | 0.00 | 0.00 | 99 | 1014.8 |
| 20260906065630 | 19 | 297 | 1.6 | 3.2 | 0.00 | 0.00 | 0.00 | 99 | 1015.0 |
| 20260906065125 | 19 | 315 | 1.6 | 3.2 | 0.00 | 0.00 | 0.00 | 99 | 1014.8 |
| 20260906064620 | 19 | 317 | 0.0 | 3.2 | 0.00 | 0.00 | 0.00 | 99 | 1015.0 |
| 20260906064115 | 19 | 304 | 3.2 | 3.2 | 0.00 | 0.00 | 0.00 | 99 | 1014.9 |
| 20260906063616 | 19 | 314 | 3.2 | 3.2 | 0.00 | 0.00 | 0.00 | 99 | 1015.0 |
| 20260906063112 | 19 | 311 | 1.6 | 3.2 | 0.00 | 0.00 | 0.00 | 99 | 1015.1 |
| 20260906062607 | 19 | 299 | 1.6 | 3.2 | 0.00 | 0.00 | 0.00 | 99 | 1014.8 |
| 20260906062106 | 19 | 324 | 1.6 | 3.2 | 0.00 | 0.00 | 0.00 | 99 | 1014.8 |
| 20260906061602 | 19 | 309 | 1.6 | 3.2 | 0.00 | 0.00 | 0.00 | 99 | 1015.1 |
| 20260906061102 | 19 | 309 | 1.6 | 3.2 | 0.00 | 0.00 | 0.00 | 99 | 1015.1 |
| 20260906060558 | 20 | 311 | 1.6 | 3.2 | 0.00 | 0.00 | 0.00 | 99 | 1015.2 |
| 20260906060055 | 20 | 315 | 0.0 | 0.0 | 0.00 | 0.00 | 0.00 | 99 | 1015.4 |
| 20260906055551 | 19 | 308 | 1.6 | 3.2 | 0.00 | 0.00 | 0.00 | 99 | 1015.5 |
| 20260906055046 | 20 | 310 | 1.6 | 3.2 | 0.00 | 0.00 | 0.00 | 99 | 1015.3 |
| 20260906054541 | 19 | 319 | 0.0 | 3.2 | 0.00 | 0.00 | 0.00 | 99 | 1015.3 |
| 20260906054036 | 20 | 346 | 0.0 | 1.6 | 0.00 | 0.00 | 0.00 | 99 | 1015.6 |
| 20260906053532 | 20 | 306 | 3.2 | 3.2 | 0.00 | 0.00 | 0.00 | 99 | 1015.5 |
| 20260906053028 | 20 | 312 | 1.6 | 3.2 | 0.00 | 0.00 | 0.00 | 99 | 1015.5 |
| 20260906052523 | 20 | 6 | 0.0 | 1.6 | 0.00 | 0.00 | 0.00 | 99 | 1015.5 |
| 20260906052020 | 20 | 307 | 3.2 | 3.2 | 0.00 | 0.00 | 0.00 | 99 | 1015.6 |
| 20260906051516 | 20 | 301 | 3.2 | 3.2 | 0.00 | 0.00 | 0.00 | 99 | 1015.5 |
| 20260906051011 | 20 | 69 | 0.0 | 0.0 | 0.00 | 0.00 | 0.00 | 99 | 1015.5 |
| 20260906050506 | 20 | 325 | 0.0 | 3.2 | 0.00 | 0.00 | 0.00 | 99 | 1015.5 |
| 20260906050006 | 20 | 316 | 1.6 | 3.2 | 0.00 | 0.00 | 0.00 | 99 | 1015.8 |
| 20260906045504 | 20 | 357 | 0.0 | 0.0 | 0.00 | 0.00 | 0.00 | 99 | 1015.6 |
| 20260906045000 | 20 | 299 | 3.2 | 3.2 | 0.00 | 0.00 | 0.00 | 99 | 1016.0 |
| 20260906044455 | 20 | 292 | 3.2 | 3.2 | 0.00 | 0.00 | 0.00 | 99 | 1015.8 |
| 20260906043951 | 20 | 315 | 0.0 | 0.0 | 0.00 | 0.00 | 0.00 | 99 | 1015.9 |
| 20260906043447 | 20 | 7 | 0.0 | 1.6 | 0.00 | 0.00 | 0.00 | 99 | 1015.9 |
| 20260906042942 | 20 | 316 | 0.0 | 1.6 | 0.00 | 0.00 | 0.00 | 99 | 1015.8 |
| 20260906042441 | 20 | 32 | 0.0 | 1.6 | 0.00 | 0.00 | 0.00 | 99 | 1015.8 |
| 20260906041936 | 20 | 323 | 1.6 | 3.2 | 0.00 | 0.00 | 0.00 | 99 | 1016.0 |
| 20260906041432 | 20 | 307 | 3.2 | 3.2 | 0.00 | 0.00 | 0.00 | 99 | 1015.7 |
| 20260906040932 | 20 | 30 | 1.6 | 1.6 | 0.00 | 0.00 | 0.00 | 99 | 1015.9 |
| 20260906040427 | 20 | 299 | 0.0 | 3.2 | 0.00 | 0.00 | 0.00 | 99 | 1016.0 |
| 20260906035922 | 20 | 303 | 3.2 | 3.2 | 0.00 | 0.00 | 0.00 | 98 | 1015.9 |
| 20260906035418 | 20 | 305 | 3.2 | 3.2 | 0.00 | 0.00 | 0.00 | 98 | 1015.5 |
| 20260906034913 | 20 | 314 | 1.6 | 3.2 | 0.00 | 0.00 | 0.00 | 98 | 1015.6 |
| 20260906034413 | 20 | 313 | 3.2 | 3.2 | 0.00 | 0.00 | 0.00 | 98 | 1015.5 |
| 20260906033908 | 20 | 306 | 1.6 | 3.2 | 0.00 | 0.00 | 0.00 | 98 | 1015.7 |
| 20260906033408 | 20 | 312 | 3.2 | 3.2 | 0.00 | 0.00 | 0.00 | 98 | 1015.9 |
| 20260906032904 | 20 | 318 | 1.6 | 3.2 | 0.00 | 0.00 | 0.00 | 98 | 1015.9 |
| 20260906032400 | 20 | 301 | 3.2 | 3.2 | 0.00 | 0.00 | 0.00 | 98 | 1015.9 |
| 20260906031855 | 21 | 306 | 3.2 | 3.2 | 0.00 | 0.00 | 0.00 | 98 | 1015.7 |
| 20260906031350 | 21 | 312 | 3.2 | 3.2 | 0.00 | 0.00 | 0.00 | 98 | 1015.7 |
| 20260906030845 | 21 | 293 | 0.0 | 0.0 | 0.00 | 0.00 | 0.00 | 98 | 1015.7 |
| 20260906030340 | 21 | 313 | 1.6 | 3.2 | 0.00 | 0.00 | 0.00 | 98 | 1015.6 |
| 20260906025835 | 21 | 307 | 1.6 | 3.2 | 0.00 | 0.00 | 0.00 | 98 | 1015.5 |
| 20260906025328 | 21 | 310 | 0.0 | 1.6 | 0.00 | 0.00 | 0.00 | 98 | 1015.8 |
| 20260906024827 | 21 | 309 | 0.0 | 1.6 | 0.00 | 0.00 | 0.00 | 98 | 1015.7 |
| 20260906024326 | 21 | 302 | 3.2 | 3.2 | 0.00 | 0.00 | 0.00 | 98 | 1015.8 |
| 20260906023822 | 21 | 301 | 0.0 | 3.2 | 0.00 | 0.00 | 0.00 | 98 | 1015.7 |
| 20260906023318 | 21 | 304 | 0.0 | 3.2 | 0.00 | 0.00 | 0.00 | 98 | 1015.8 |
| 20260906022814 | 21 | 315 | 3.2 | 3.2 | 0.00 | 0.00 | 0.00 | 98 | 1015.8 |
| 20260906022308 | 21 | 299 | 1.6 | 3.2 | 0.00 | 0.00 | 0.00 | 97 | 1015.8 |
| 20260906021804 | 21 | 318 | 3.2 | 3.2 | 0.00 | 0.00 | 0.00 | 98 | 1015.7 |
| 20260906021304 | 21 | 305 | 1.6 | 3.2 | 0.00 | 0.00 | 0.00 | 98 | 1015.8 |
| 20260906020759 | 21 | 306 | 1.6 | 1.6 | 0.00 | 0.00 | 0.00 | 98 | 1015.8 |
| 20260906020258 | 21 | 300 | 0.0 | 1.6 | 0.00 | 0.00 | 0.00 | 98 | 1015.7 |
| 20260906015758 | 21 | 322 | 0.0 | 3.2 | 0.00 | 0.00 | 0.00 | 97 | 1015.7 |
| 20260906015256 | 21 | 284 | 3.2 | 3.2 | 0.00 | 0.00 | 0.00 | 97 | 1015.6 |
| 20260906014751 | 22 | 37 | 0.0 | 0.0 | 0.00 | 0.00 | 0.00 | 97 | 1015.6 |
| 20260906014247 | 22 | 326 | 0.0 | 1.6 | 0.00 | 0.00 | 0.00 | 97 | 1015.5 |
| 20260906013743 | 22 | 308 | 1.6 | 3.2 | 0.00 | 0.00 | 0.00 | 97 | 1015.4 |
| 20260906013243 | 22 | 305 | 1.6 | 3.2 | 0.00 | 0.00 | 0.00 | 97 | 1015.4 |
| 20260906012738 | 22 | 306 | 1.6 | 3.2 | 0.00 | 0.00 | 0.00 | 97 | 1015.2 |
| 20260906012234 | 22 | 308 | 1.6 | 3.2 | 0.00 | 0.00 | 0.00 | 97 | 1015.2 |
| 20260906011729 | 22 | 15 | 0.0 | 0.0 | 0.00 | 0.00 | 0.00 | 97 | 1015.1 |
| 20260906011228 | 22 | 301 | 0.0 | 3.2 | 0.00 | 0.00 | 0.00 | 97 | 1014.9 |
| 20260906010724 | 22 | 318 | 0.0 | 3.2 | 0.00 | 0.00 | 0.00 | 96 | 1014.9 |
| 20260906010220 | 22 | 306 | 3.2 | 3.2 | 0.00 | 0.00 | 0.00 | 96 | 1014.9 |
| 20260906005715 | 22 | 310 | 1.6 | 3.2 | 0.00 | 0.00 | 0.00 | 96 | 1014.8 |
| 20260906005214 | 22 | 315 | 3.2 | 3.2 | 0.00 | 0.00 | 0.00 | 96 | 1014.8 |
| 20260906004713 | 22 | 294 | 1.6 | 3.2 | 0.00 | 0.00 | 0.00 | 95 | 1014.7 |
| 20260906004208 | 22 | 299 | 3.2 | 3.2 | 0.00 | 0.00 | 0.00 | 95 | 1014.5 |
| 20260906003704 | 23 | 30 | 1.6 | 1.6 | 0.00 | 0.00 | 0.00 | 95 | 1014.4 |
| 20260906003159 | 23 | 297 | 0.0 | 1.6 | 0.00 | 0.00 | 0.00 | 95 | 1014.4 |
| 20260906002659 | 23 | 333 | 0.0 | 3.2 | 0.00 | 0.00 | 0.00 | 94 | 1014.5 |
| 20260906002154 | 23 | 50 | 0.0 | 0.0 | 0.00 | 0.00 | 0.00 | 94 | 1014.5 |
| 20260906001649 | 23 | 25 | 0.0 | 1.6 | 0.00 | 0.00 | 0.00 | 93 | 1014.0 |
| 20260906001149 | 23 | 68 | 0.0 | 1.6 | 0.00 | 0.00 | 0.00 | 94 | 1014.5 |
| 20260906000645 | 23 | 334 | 0.0 | 1.6 | 0.00 | 0.00 | 0.00 | 94 | 1014.2 |
| 20260906000140 | 23 | 113 | 0.0 | 0.0 | 0.00 | 0.00 | 0.00 | 94 | 1014.4 |
| 20260905235639 | 24 | 297 | 0.0 | 0.0 | 0.00 | 0.00 | 0.00 | 94 | 1014.5 |
| 20260905235134 | 24 | 284 | 0.0 | 0.0 | 0.00 | 0.00 | 0.00 | 93 | 1014.6 |
| 20260905234630 | 24 | 283 | 0.0 | 0.0 | 0.00 | 0.00 | 0.00 | 93 | 1014.2 |
| 20260905234126 | 24 | 322 | 0.0 | 0.0 | 0.00 | 0.00 | 0.00 | 92 | 1014.4 |
| 20260905233626 | 25 | 315 | 1.6 | 3.2 | 0.00 | 0.00 | 0.00 | 92 | 1014.5 |
| 20260905233120 | 25 | 293 | 0.0 | 0.0 | 0.00 | 0.00 | 0.00 | 92 | 1014.5 |
| 20260905232615 | 25 | 309 | 0.0 | 1.6 | 0.00 | 0.00 | 0.00 | 92 | 1014.8 |
| 20260905232112 | 25 | 313 | 1.6 | 3.2 | 0.00 | 0.00 | 0.00 | 91 | 1014.6 |
| 20260905231611 | 25 | 309 | 1.6 | 3.2 | 0.00 | 0.00 | 0.00 | 89 | 1014.5 |
| 20260905231108 | 25 | 297 | 0.0 | 1.6 | 0.00 | 0.00 | 0.00 | 89 | 1014.6 |
| 20260905230603 | 25 | 301 | 0.0 | 1.6 | 0.00 | 0.00 | 0.00 | 89 | 1014.6 |
| 20260905225600 | 25 | 255 | 0.0 | 0.0 | 0.00 | 0.00 | 0.00 | 87 | 1014.7 |
| 20260905225055 | 26 | 205 | 0.0 | 1.6 | 0.00 | 0.00 | 0.00 | 87 | 1014.9 |
| 20260905224555 | 26 | 44 | 0.0 | 0.0 | 0.00 | 0.00 | 0.00 | 86 | 1014.8 |
| 20260905224055 | 27 | 298 | 0.0 | 3.2 | 0.00 | 0.00 | 0.00 | 81 | 1014.6 |
| 20260905223552 | 27 | 306 | 0.0 | 1.6 | 0.00 | 0.00 | 0.00 | 83 | 1014.6 |
| 20260905223048 | 28 | 281 | 1.6 | 3.2 | 0.00 | 0.00 | 0.00 | 82 | 1014.7 |
| 20260905222548 | 27 | 283 | 3.2 | 3.2 | 0.00 | 0.00 | 0.00 | 79 | 1014.7 |
| 20260905222043 | 27 | 275 | 1.6 | 4.8 | 0.00 | 0.00 | 0.00 | 84 | 1014.6 |
| 20260905221540 | 26 | 117 | 0.0 | 0.0 | 0.00 | 0.00 | 0.00 | 88 | 1014.6 |
| 20260905221036 | 26 | 309 | 0.0 | 3.2 | 0.00 | 0.00 | 0.00 | 91 | 1014.9 |
| 20260905220531 | 26 | 318 | 0.0 | 3.2 | 0.00 | 0.00 | 0.00 | 92 | 1014.8 |
| 20260905220027 | 25 | 312 | 3.2 | 3.2 | 0.00 | 0.00 | 0.00 | 91 | 1014.7 |
| 20260905215526 | 25 | 307 | 1.6 | 3.2 | 0.00 | 0.00 | 0.00 | 92 | 1014.4 |
| 20260905215023 | 25 | 62 | 0.0 | 1.6 | 0.00 | 0.00 | 0.00 | 91 | 1014.2 |
| 20260905214518 | 26 | 75 | 0.0 | 1.6 | 0.00 | 0.00 | 0.00 | 90 | 1014.2 |
| 20260905214013 | 26 | 117 | 1.6 | 3.2 | 0.00 | 0.00 | 0.00 | 91 | 1014.2 |
| 20260905213509 | 26 | 75 | 1.6 | 1.6 | 0.00 | 0.00 | 0.00 | 91 | 1014.2 |
| 20260905213004 | 26 | 141 | 0.0 | 0.0 | 0.00 | 0.00 | 0.00 | 90 | 1014.7 |
| 20260905212459 | 26 | 322 | 0.0 | 1.6 | 0.00 | 0.00 | 0.00 | 90 | 1014.6 |
| 20260905211958 | 26 | 329 | 0.0 | 1.6 | 0.00 | 0.00 | 0.00 | 89 | 1014.6 |
| 20260905211453 | 26 | 322 | 0.0 | 0.0 | 0.00 | 0.00 | 0.00 | 88 | 1014.4 |
| 20260905210949 | 26 | 322 | 0.0 | 0.0 | 0.00 | 0.00 | 0.00 | 88 | 1014.6 |
| 20260905210444 | 26 | 62 | 0.0 | 1.6 | 0.00 | 0.00 | 0.00 | 87 | 1014.8 |
| 20260905205944 | 26 | 284 | 0.0 | 0.0 | 0.00 | 0.00 | 0.00 | 87 | 1015.0 |
| 20260905205439 | 27 | 293 | 1.6 | 3.2 | 0.00 | 0.00 | 0.00 | 85 | 1015.0 |
| 20260905204937 | 27 | 101 | 1.6 | 3.2 | 0.00 | 0.00 | 0.00 | 85 | 1015.1 |
| 20260905204433 | 27 | 307 | 0.0 | 1.6 | 0.00 | 0.00 | 0.00 | 85 | 1015.0 |
| 20260905203932 | 27 | 297 | 0.0 | 1.6 | 0.00 | 0.00 | 0.00 | 83 | 1014.8 |
| 20260905203428 | 28 | 284 | 0.0 | 3.2 | 0.00 | 0.00 | 0.00 | 82 | 1014.5 |
| 20260905202923 | 28 | 267 | 3.2 | 3.2 | 0.00 | 0.00 | 0.00 | 80 | 1014.7 |
| 20260905202419 | 28 | 291 | 0.0 | 0.0 | 0.00 | 0.00 | 0.00 | 78 | 1014.7 |
| 20260905201914 | 29 | 104 | 0.0 | 0.0 | 0.00 | 0.00 | 0.00 | 76 | 1014.9 |
| 20260905201409 | 30 | 326 | 0.0 | 3.2 | 0.00 | 0.00 | 0.00 | 68 | 1015.0 |
| 20260905200909 | 31 | 295 | 1.6 | 3.2 | 0.00 | 0.00 | 0.00 | 66 | 1015.0 |
| 20260905200405 | 31 | 261 | 3.2 | 4.8 | 0.00 | 0.00 | 0.00 | 69 | 1014.9 |
| 20260905195903 | 31 | 89 | 0.0 | 1.6 | 0.00 | 0.00 | 0.00 | 65 | 1014.9 |
| 20260905195358 | 31 | 259 | 4.8 | 6.4 | 0.00 | 0.00 | 0.00 | 59 | 1014.7 |
| 20260905194855 | 31 | 142 | 0.0 | 4.8 | 0.00 | 0.00 | 0.00 | 63 | 1014.5 |
| 20260905194354 | 30 | 255 | 4.8 | 8.0 | 0.00 | 0.00 | 0.00 | 64 | 1014.8 |
| 20260905193853 | 30 | 235 | 1.6 | 1.6 | 0.00 | 0.00 | 0.00 | 72 | 1014.8 |
| 20260905193348 | 30 | 209 | 0.0 | 3.2 | 0.00 | 0.00 | 0.00 | 75 | 1014.8 |
| 20260905192844 | 30 | 296 | 1.6 | 3.2 | 0.00 | 0.00 | 0.00 | 67 | 1014.9 |
| 20260905192339 | 31 | 322 | 0.0 | 6.4 | 0.00 | 0.00 | 0.00 | 69 | 1015.2 |
| 20260905191839 | 31 | 259 | 4.8 | 4.8 | 0.00 | 0.00 | 0.00 | 64 | 1015.3 |
| 20260905191338 | 31 | 262 | 3.2 | 6.4 | 0.00 | 0.00 | 0.00 | 63 | 1015.3 |
| 20260905190837 | 31 | 286 | 4.8 | 6.4 | 0.00 | 0.00 | 0.00 | 66 | 1015.3 |
| 20260905190330 | 31 | 304 | 1.6 | 4.8 | 0.00 | 0.00 | 0.00 | 71 | 1015.4 |
| 20260905185829 | 30 | 306 | 0.0 | 6.4 | 0.00 | 0.00 | 0.00 | 68 | 1015.2 |
| 20260905185325 | 30 | 276 | 0.0 | 4.8 | 0.00 | 0.00 | 0.00 | 70 | 1015.4 |
| 20260905184823 | 29 | 191 | 0.0 | 1.6 | 0.00 | 0.00 | 0.00 | 76 | 1015.3 |
| 20260905184324 | 30 | 282 | 3.2 | 3.2 | 0.00 | 0.00 | 0.00 | 72 | 1015.1 |
| 20260905183822 | 31 | 283 | 3.2 | 3.2 | 0.00 | 0.00 | 0.00 | 71 | 1015.5 |
| 20260905183318 | 31 | 324 | 1.6 | 3.2 | 0.00 | 0.00 | 0.00 | 74 | 1015.4 |
| 20260905182818 | 31 | 273 | 3.2 | 8.0 | 0.00 | 0.00 | 0.00 | 62 | 1015.5 |
| 20260905182317 | 31 | 72 | 3.2 | 6.4 | 0.00 | 0.00 | 0.00 | 69 | 1015.4 |
| 20260905181813 | 31 | 291 | 6.4 | 8.0 | 0.00 | 0.00 | 0.00 | 64 | 1015.6 |
| 20260905181312 | 30 | 296 | 3.2 | 6.4 | 0.00 | 0.00 | 0.00 | 66 | 1015.6 |
| 20260905180811 | 30 | 309 | 3.2 | 4.8 | 0.00 | 0.00 | 0.00 | 68 | 1015.6 |
| 20260905180306 | 30 | 291 | 0.0 | 4.8 | 0.00 | 0.00 | 0.00 | 74 | 1015.8 |
| 20260905175801 | 30 | 299 | 0.0 | 3.2 | 0.00 | 0.00 | 0.00 | 72 | 1015.8 |
| 20260905175256 | 30 | 104 | 0.0 | 3.2 | 0.00 | 0.00 | 0.00 | 74 | 1016.2 |
| 20260905174751 | 30 | 296 | 3.2 | 3.2 | 0.00 | 0.00 | 0.00 | 71 | 1015.9 |
| 20260905174247 | 30 | 42 | 1.6 | 3.2 | 0.00 | 0.00 | 0.00 | 73 | 1016.0 |
| 20260905173744 | 30 | 262 | 3.2 | 6.4 | 0.00 | 0.00 | 0.00 | 64 | 1016.0 |
| 20260905173239 | 30 | 244 | 8.0 | 9.7 | 0.00 | 0.00 | 0.00 | 66 | 1016.3 |
| 20260905172738 | 30 | 54 | 1.6 | 3.2 | 0.00 | 0.00 | 0.00 | 74 | 1016.2 |
| 20260905172232 | 31 | 63 | 0.0 | 4.8 | 0.00 | 0.00 | 0.00 | 72 | 1016.4 |
| 20260905171729 | 31 | 241 | 4.8 | 6.4 | 0.00 | 0.00 | 0.00 | 62 | 1016.3 |
| 20260905171225 | 30 | 295 | 1.6 | 4.8 | 0.00 | 0.00 | 0.00 | 66 | 1016.4 |
| 20260905170721 | 30 | 353 | 0.0 | 3.2 | 0.00 | 0.00 | 0.00 | 75 | 1016.4 |
| 20260905170221 | 31 | 293 | 1.6 | 6.4 | 0.00 | 0.00 | 0.00 | 72 | 1016.3 |
| 20260905165721 | 31 | 217 | 1.6 | 3.2 | 0.00 | 0.00 | 0.00 | 70 | 1016.4 |
| 20260905165216 | 31 | 282 | 4.8 | 9.7 | 0.00 | 0.00 | 0.00 | 64 | 1016.5 |
| 20260905164711 | 31 | 275 | 3.2 | 3.2 | 0.00 | 0.00 | 0.00 | 68 | 1016.6 |
| 20260905164210 | 31 | 25 | 0.0 | 3.2 | 0.00 | 0.00 | 0.00 | 71 | 1016.7 |
| 20260905163706 | 30 | 285 | 3.2 | 4.8 | 0.00 | 0.00 | 0.00 | 71 | 1016.7 |
| 20260905163202 | 30 | 306 | 12.9 | 12.9 | 0.00 | 0.00 | 0.00 | 65 | 1016.8 |
| 20260905162658 | 30 | 304 | 3.2 | 3.2 | 0.00 | 0.00 | 0.00 | 74 | 1016.7 |
| 20260905162158 | 30 | 263 | 3.2 | 4.8 | 0.00 | 0.00 | 0.00 | 73 | 1016.9 |
| 20260905161654 | 30 | 284 | 0.0 | 3.2 | 0.00 | 0.00 | 0.00 | 71 | 1017.1 |
| 20260905161151 | 30 | 48 | 1.6 | 3.2 | 0.00 | 0.00 | 0.00 | 75 | 1017.0 |
| 20260905160651 | 30 | 189 | 1.6 | 3.2 | 0.00 | 0.00 | 0.00 | 72 | 1017.3 |
| 20260905160150 | 29 | 255 | 4.8 | 4.8 | 0.00 | 0.00 | 0.00 | 73 | 1017.1 |
| 20260905155650 | 29 | 280 | 3.2 | 3.2 | 0.00 | 0.00 | 0.00 | 76 | 1017.2 |
| 20260905155149 | 29 | 159 | 1.6 | 3.2 | 0.00 | 0.00 | 0.00 | 76 | 1017.2 |
| 20260905154643 | 29 | 121 | 1.6 | 4.8 | 0.00 | 0.00 | 0.00 | 77 | 1017.3 |
| 20260905154139 | 29 | 310 | 3.2 | 6.4 | 0.00 | 0.00 | 0.00 | 77 | 1017.3 |
| 20260905153634 | 28 | 308 | 3.2 | 3.2 | 0.00 | 0.00 | 0.00 | 84 | 1017.3 |
| 20260905153130 | 28 | 38 | 0.0 | 3.2 | 0.00 | 0.00 | 0.00 | 80 | 1017.4 |
| 20260905152625 | 28 | 255 | 0.0 | 3.2 | 0.00 | 0.00 | 0.00 | 82 | 1017.3 |
| 20260905152119 | 27 | 37 | 3.2 | 3.2 | 0.00 | 0.00 | 0.00 | 83 | 1017.2 |
| 20260905151614 | 27 | 127 | 3.2 | 3.2 | 0.00 | 0.00 | 0.00 | 83 | 1017.4 |
| 20260905151110 | 27 | 58 | 0.0 | 3.2 | 0.00 | 0.00 | 0.00 | 85 | 1017.5 |
| 20260905150605 | 27 | 217 | 0.0 | 3.2 | 0.00 | 0.00 | 0.00 | 81 | 1017.4 |
| 20260905145557 | 26 | 50 | 0.0 | 3.2 | 0.00 | 0.00 | 0.00 | 88 | 1017.5 |
| 20260905145056 | 26 | 82 | 0.0 | 3.2 | 0.00 | 0.00 | 0.00 | 86 | 1017.4 |
| 20260905144551 | 26 | 50 | 3.2 | 3.2 | 0.00 | 0.00 | 0.00 | 88 | 1017.6 |
| 20260905144049 | 25 | 37 | 0.0 | 3.2 | 0.00 | 0.00 | 0.00 | 89 | 1017.5 |
| 20260905143549 | 25 | 79 | 1.6 | 3.2 | 0.00 | 0.00 | 0.00 | 88 | 1017.7 |
| 20260905143044 | 25 | 66 | 0.0 | 3.2 | 0.00 | 0.00 | 0.00 | 89 | 1017.5 |
| 20260905142543 | 25 | 35 | 0.0 | 3.2 | 0.00 | 0.00 | 0.00 | 91 | 1017.4 |
| 20260905142033 | 25 | 44 | 1.6 | 3.2 | 0.00 | 0.00 | 0.00 | 92 | 1017.6 |
| 20260905141532 | 24 | 85 | 1.6 | 1.6 | 0.00 | 0.00 | 0.00 | 91 | 1017.6 |
| 20260905141030 | 23 | 82 | 1.6 | 3.2 | 0.00 | 0.00 | 0.00 | 93 | 1017.6 |
| 20260905140529 | 23 | 65 | 0.0 | 1.6 | 0.00 | 0.00 | 0.00 | 93 | 1017.7 |
| 20260905140028 | 23 | 50 | 0.0 | 3.2 | 0.00 | 0.00 | 0.00 | 94 | 1017.9 |
| 20260905135524 | 22 | 62 | 0.0 | 1.6 | 0.00 | 0.00 | 0.00 | 94 | 1017.6 |
| 20260905135019 | 22 | 89 | 0.0 | 1.6 | 0.00 | 0.00 | 0.00 | 96 | 1018.0 |
| 20260905134514 | 22 | 58 | 1.6 | 3.2 | 0.00 | 0.00 | 0.00 | 97 | 1017.6 |
| 20260905134012 | 21 | 68 | 0.0 | 3.2 | 0.00 | 0.00 | 0.00 | 99 | 1018.1 |
| 20260905133508 | 21 | 32 | 0.0 | 0.0 | 0.00 | 0.00 | 0.00 | 99 | 1018.0 |
| 20260905133008 | 21 | 53 | 0.0 | 1.6 | 0.00 | 0.00 | 0.00 | 99 | 1017.7 |
| 20260905132502 | 21 | 341 | 0.0 | 0.0 | 0.00 | 0.00 | 0.00 | 99 | 1018.0 |
| 20260905132002 | 21 | 344 | 0.0 | 0.0 | 0.00 | 0.00 | 0.00 | 99 | 1018.1 |
| 20260905131458 | 20 | 5 | 0.0 | 0.0 | 0.00 | 0.00 | 0.00 | 99 | 1018.1 |
| 20260905130953 | 20 | 0 | 0.0 | 0.0 | 0.00 | 0.00 | 0.00 | 99 | 1018.2 |
| 20260905130452 | 20 | 347 | 0.0 | 1.6 | 0.00 | 0.00 | 0.00 | 99 | 1018.2 |
| 20260905125952 | 20 | 345 | 0.0 | 0.0 | 0.00 | 0.00 | 0.00 | 99 | 1018.1 |
| 20260905125447 | 20 | 0 | 0.0 | 0.0 | 0.00 | 0.00 | 0.00 | 99 | 1018.1 |
| 20260905124942 | 20 | 343 | 0.0 | 1.6 | 0.00 | 0.00 | 0.00 | 99 | 1018.0 |
| 20260905124440 | 20 | 324 | 0.0 | 1.6 | 0.00 | 0.00 | 0.00 | 99 | 1017.9 |
| 20260905123940 | 20 | 308 | 1.6 | 3.2 | 0.00 | 0.00 | 0.00 | 99 | 1017.9 |
| 20260905123437 | 20 | 309 | 0.0 | 0.0 | 0.00 | 0.00 | 0.00 | 99 | 1018.1 |
| 20260905122937 | 19 | 309 | 0.0 | 3.2 | 0.00 | 0.00 | 0.00 | 99 | 1017.9 |
| 20260905122436 | 19 | 310 | 3.2 | 3.2 | 0.05 | 0.00 | 0.00 | 99 | 1017.9 |
| 20260905121932 | 19 | 313 | 0.0 | 1.6 | 0.05 | 0.00 | 0.00 | 99 | 1018.0 |
| 20260905121428 | 19 | 312 | 1.6 | 3.2 | 0.00 | 0.00 | 0.00 | 99 | 1017.7 |
| 20260905120926 | 18 | 305 | 3.2 | 3.2 | 0.00 | 0.00 | 0.00 | 99 | 1017.9 |
| 20260905120421 | 18 | 296 | 1.6 | 3.2 | 0.00 | 0.00 | 0.00 | 99 | 1017.9 |
| 20260905115916 | 18 | 307 | 1.6 | 1.6 | 0.00 | 0.00 | 0.00 | 99 | 1017.5 |
| 20260905115415 | 18 | 316 | 0.0 | 1.6 | 0.00 | 0.00 | 0.00 | 99 | 1017.9 |
| 20260905114911 | 18 | 312 | 1.6 | 3.2 | 0.00 | 0.00 | 0.00 | 99 | 1017.5 |
| 20260905114410 | 18 | 298 | 3.2 | 3.2 | 0.00 | 0.00 | 0.00 | 99 | 1017.7 |
| 20260905113909 | 18 | 315 | 1.6 | 3.2 | 0.00 | 0.00 | 0.00 | 99 | 1017.6 |
| 20260905113405 | 18 | 309 | 3.2 | 3.2 | 0.00 | 0.00 | 0.00 | 99 | 1017.4 |
| 20260905112900 | 18 | 302 | 1.6 | 1.6 | 0.00 | 0.00 | 0.00 | 99 | 1017.4 |
| 20260905112355 | 18 | 335 | 1.6 | 3.2 | 0.00 | 0.00 | 0.00 | 99 | 1017.4 |
| 20260905111851 | 18 | 303 | 3.2 | 3.2 | 0.00 | 0.00 | 0.00 | 99 | 1017.1 |
| 20260905111350 | 18 | 292 | 1.6 | 3.2 | 0.00 | 0.00 | 0.00 | 99 | 1017.1 |
| 20260905110849 | 18 | 312 | 3.2 | 3.2 | 0.00 | 0.00 | 0.00 | 99 | 1017.2 |
| 20260905110344 | 18 | 312 | 1.6 | 1.6 | 0.00 | 0.00 | 0.00 | 99 | 1016.9 |
| 20260905105840 | 18 | 314 | 3.2 | 3.2 | 0.00 | 0.00 | 0.00 | 99 | 1017.0 |